Terug naar catalogus

DELTA 1 DEB

ActiefLEO
NORAD 29189·DEBRIS·🇺🇸 United States

Gelanceerd Jan 11, 1968 vanaf Vandenberg Space Force Base

Loading…

Volgende Passages (komende 24 uur)

TLE

VerouderdSource: Space-Track

Epoch: Sep 7, 2026, 00:56 UTC

1 29189U 68002N   26250.03926308 -.00000256  00000-0 -39915-3 0  9996
2 29189 105.8346 315.3328 0243477  93.3621  24.8609 13.15283820540296

Volg DELTA 1 DEB in realtime met AllMySat

Download on the App Store